Regional Weather Roundup
Issued by NWS Sioux Falls, SD

Home | Current Version | Previous Version | Text Only | Print | Product List | Glossary On
Versions: 1 2 3 4 5 6 7 8 9 10 11 12 13 14 15 16 17 18 19 20 21 22 23 24 25 26 27 28 29 30 31 32 33 34 35 36 37 38 39 40 41 42 43 44 45 46 47 48 49 50
000
ASUS43 KFSD 040510
RWRFSD

WEATHER ROUNDUP FOR SE SOUTH DAKOTA/SW MINNESOTA/NW IOWA
NATIONAL WEATHER SERVICE SIOUX FALLS SD
1100 PM CST SAT DEC 03 2016

NOTE: "FAIR" INDICATES FEW OR NO CLOUDS BELOW 12,000 FEET WITH NO
SIGNIFICANT WEATHER AND OR OBSTRUCTIONS TO VISIBILITY.


SDZ038>040-050-052>070-040600-
SOUTHEAST SOUTH DAKOTA

CITY           SKY/WX    TMP DP  RH WIND       PRES   REMARKS
BROOKINGS      CLOUDY    33  31  92 S13       29.96F WCI  24
CHAMBERLAIN    CLEAR     26  24  89 S5        29.93R WCI  21
HURON          CLEAR     33  32  96 S14       29.91F WCI  23
MADISON        CLOUDY    32  32 100 S17G26    29.96F FOG     WCI  21
MITCHELL       PTCLDY    35  33  92 S14       29.95S WCI  26
SIOUX FALLS    CLOUDY    34  33  96 S15       30.00F FOG     WCI  24
WINNER         FAIR      29  22  75 SW8       29.93R WCI  21
YANKTON        CLOUDY    36  30  80 S12G18    30.01F
$$

MNZ071-072-080-081-089-090-097-098-040600-
SOUTHWEST MINNESOTA

CITY           SKY/WX    TMP DP  RH WIND       PRES   REMARKS
FAIRMONT       MIX PCPN  33  32  96 S12       30.09F WCI  24
JACKSON        LGT SNOW  32  32 100 S12       30.07S WCI  23
LUVERNE        CLOUDY    32  32 100 S16       30.03F WCI  21
MARSHALL       CLOUDY    35  31  85 S15       30.02F WCI  25
MONTEVIDEO     CLOUDY    34  34 100 SW8       30.03F FOG     WCI  27
PIPESTONE      CLOUDY    34  34 100 S17       29.98F FOG     WCI  23
REDWOOD FALLS  CLOUDY    34  31  88 S12       30.05F FOG     WCI  25
TRACY          CLOUDY    35  33  92 S15       30.02F WCI  25
WINDOM         FLURRIES  34  34 100 S14       30.04F WCI  24
WORTHINGTON    MIX PCPN  32  31  96 S17       30.03F WCI  21
$$

IAZ001>003-012>014-020>022-031-032-NEZ013-014-SDZ071-040600-
NORTHWEST IOWA

CITY           SKY/WX    TMP DP  RH WIND       PRES   REMARKS
CHEROKEE       CLOUDY    33  33 100 S7        30.07F WCI  26
DENISON        LGT SNOW  34  34 100 SE7       30.05F WCI  28
ESTHERVILLE    CLOUDY    32  32 100 S14       30.07F WCI  22
LE MARS        CLOUDY    34  34 100 S12       30.06S WCI  25
ORANGE CITY    CLOUDY    34  34 100 S9        30.04S WCI  26
SHELDON        CLOUDY    34  34 100 S15       30.03F WCI  24
SIOUX CITY     CLOUDY    35  33  92 S10       30.06S WCI  27
SPENCER        CLOUDY    34  33  96 S18       30.07F WCI  23
STORM LAKE     LGT SNOW  32  32 100 SE12      30.07F WCI  23
$$

ABBREVIATIONS USED IN REMARKS
   TC - TEMPERATURE IN CELSIUS
  WCI - WIND CHILL INDEX
   HX - HEAT INDEX
  VSB - VISIBILITY





USA.gov is the U.S. government's official web portal to all federal, state and local government web resources and services.